Theta_e
316 315 317 320 322 325 325 326 326 327 327 328 328 325 322 322 324 319 318 319 321 323
315 313 318 319 319 320 322 322 321 321 322 320 318 317 316 317 316 317 317 317 317 316
313 314 316 316 318 314 315 314 315 315 315 315 315 314 314 313 314 313 312 312 311 311
312 314 314 314 313 312 310 310 311 312 312 311 311 311 311 310 309 309 307 307 308 307
308 311 312 313 310 309 307 308 307 309 309 308 308 308 308 306 306 304 304 304 305 304
306 308 308 311 307 308 306 306 307 306 306 307 307 306 305 305 304 304 302 303 303 303
304 307 310 308 305 305 305 305 305 304 305 305 305 305 305 304 304 304 304 304 304 303
305 310 308 305 304 303 303 304 304 303 303 303 303 304 303 303 302 301 301 302 303 304
309 307 304 303 301 301 301 301 301 301 300 300 300 301 303 300 297 300 300 300 301 303
308 304 302 301 300 299 299 299 299 299 300 299 300 299 300 303 300 300 300 300 301 302
303 301 300 299 298 298 299 298 298 298 299 299 300 299 299 301 301 302 302 302 301 302
301 298 298 297 297 298 298 298 298 299 297 297 297 298 297 301 300 298 301 301 301 300
299 298 297 297 297 298 298 297 300 297 296 300 296 297 296 300 302 299 301 301 301 299
298 298 298 298 298 297 298 298 297 297 297 297 297 298 297 298 302 300 298 299 300 299
Wind_Speed
5 5 5 8 8 6 7 9 14 13 11 8 3 4 6 6 6 6 5 8 7 4
4 6 6 7 6 5 7 7 10 10 9 9 8 9 7 4 6 7 6 4 5 4
2 4 5 5 6 6 5 6 9 9 8 6 6 7 7 5 6 5 4 4 5 4
6 5 6 5 4 6 5 7 8 8 6 7 6 6 6 6 6 5 6 6 5 4
7 7 6 5 5 5 6 7 6 9 6 6 6 6 7 5 6 6 6 5 5 5
10 9 7 5 6 6 7 8 9 9 8 7 7 7 6 6 5 6 5 5 6 5
9 9 5 4 5 6 7 8 10 9 8 8 7 7 7 5 5 6 6 5 5 5
9 3 4 4 4 6 8 9 8 7 8 8 8 7 7 6 7 6 5 6 6 5
9 5 5 4 4 8 8 8 7 7 7 8 6 12 12 8 5 4 4 4 5 6
5 7 6 5 6 8 7 6 6 6 6 7 6 11 11 10 4 5 5 5 4 5
7 7 6 5 6 6 4 3 3 4 1 3 3 9 9 8 6 5 5 5 6 6
7 7 5 6 4 5 5 3 2 2 5 6 6 7 6 5 3 4 3 5 7 7
7 6 5 5 5 3 2 3 3 3 3 5 5 8 6 6 3 4 4 4 5 11
6 5 3 3 3 3 4 3 3 2 3 5 6 8 10 9 5 3 3 5 5 5
Wind_Direction
1 358 332 331 333 4 15 18 8 24 9 350 25 13 2 355 3 11 5 340 328 319
357 349 338 335 324 359 32 33 24 2 6 2 355 4 14 3 2 357 338 322 338 331
358 330 332 338 344 349 20 22 62 35 8 1 5 348 14 19 7 11 353 7 3 349
343 335 338 340 8 347 14 29 37 52 16 355 8 5 32 26 18 15 10 12 360 350
336 333 331 16 3 12 15 23 32 42 34 22 22 21 38 46 42 35 32 13 23 17
327 326 324 52 16 16 16 13 28 27 20 26 32 48 48 48 49 48 34 14 21 12
318 316 56 36 40 25 24 26 35 20 26 25 35 43 48 42 43 43 29 12 13 6
300 80 77 55 48 47 38 42 37 29 31 23 26 27 26 24 31 29 23 25 5 17
334 97 86 57 46 64 53 48 40 37 40 35 30 25 35 43 32 20 23 19 7 19
87 72 68 60 55 59 54 54 43 39 37 41 34 31 24 22 30 32 20 19 9 19
63 74 66 65 60 58 52 50 42 39 59 84 47 35 20 358 360 35 28 355 357 18
65 72 69 69 66 46 39 23 43 349 23 26 3 6 18 19 30 25 61 56 36 22
69 69 59 46 46 9 330 350 44 43 12 8 354 355 19 61 56 24 15 29 35 26
75 73 49 38 16 1 349 357 42 40 24 9 9 29 31 38 53 42 37 25 23 35